This is the latest recevied weather packets stored in our database for station/object VK5GR-12. If no packets are shown the sender has not sent any weather packets the latest 10 day(s).
| Time | Temp. | Humidity | Pressure | Rain* | Wind** | Luminosity | Snow |
|---|---|---|---|---|---|---|---|
| 1777641419 | 24.44° C | 37% | 1012.8 hPa | 0 mm | - | 0 W/m² | - |
| 1777640514 | 24.44° C | 37% | 1012.7 hPa | 0 mm | - | 0 W/m² | - |
| 1777638711 | 24.44° C | 38% | 1013.2 hPa | 0 mm | - | 0 W/m² | - |
| 1777637806 | 24.44° C | 39% | 1013.5 hPa | 0 mm | - | 0 W/m² | - |
| 1777636902 | 24.44° C | 39% | 1013.6 hPa | 0 mm | - | 0 W/m² | - |
| 1777636001 | 24.44° C | 39% | 1013.8 hPa | 0 mm | - | 0 W/m² | - |
| 1777635097 | 24.44° C | 38% | 1013.8 hPa | 0 mm | - | 0 W/m² | - |
| 1777634192 | 25° C | 38% | 1013.9 hPa | 0 mm | - | 0 W/m² | - |
| 1777633290 | 25° C | 38% | 1014 hPa | 0 mm | - | 0 W/m² | - |
| 1777632386 | 24.44° C | 38% | 1014.1 hPa | 0 mm | - | 0 W/m² | - |
| 1777631484 | 25° C | 38% | 1014.2 hPa | 0 mm | - | 0 W/m² | - |
| 1777630579 | 25° C | 38% | 1014.3 hPa | 0 mm | - | 0 W/m² | - |
| 1777629677 | 25° C | 38% | 1014.5 hPa | 0 mm | - | 0 W/m² | - |
| 1777628772 | 25.56° C | 37% | 1014.4 hPa | 0 mm | - | 0 W/m² | - |
| 1777627872 | 25.56° C | 37% | 1014.5 hPa | 0 mm | - | 0 W/m² | - |
| 1777626968 | 25.56° C | 36% | 1014.5 hPa | 0 mm | - | 0 W/m² | - |
| 1777626065 | 25.56° C | 36% | 1014.4 hPa | 0 mm | - | 0 W/m² | - |
| 1777625163 | 26.11° C | 35% | 1014.3 hPa | 0 mm | - | 0 W/m² | - |
| 1777624262 | 26.11° C | 35% | 1014.1 hPa | 0 mm | - | 0 W/m² | - |
| 1777623361 | 26.11° C | 36% | 1013.9 hPa | 0 mm | - | 0 W/m² | - |
| 1777622457 | 26.67° C | 35% | 1013.9 hPa | 0 mm | - | 3 W/m² | - |
| 1777621552 | 27.22° C | 33% | 1014.2 hPa | 0 mm | - | 9 W/m² | - |
| 1777620652 | 27.22° C | 33% | 1013.8 hPa | 0 mm | - | 30 W/m² | - |
| 1777619748 | 27.78° C | 32% | 1014.1 hPa | 0 mm | - | 44 W/m² | - |
| 1777618844 | 28.33° C | 31% | 1014.2 hPa | 0 mm | - | 78 W/m² | - |
* Rain latest hour (hover to see other rain measurements)
** Current wind speed in m/s (hover to see current wind gust speed)